| time (UTC) | temp C | wind direction | speed KPH | gust KPH | rain 1hr cm | rain 24hr cm | rain mn cm | humidity % | barometer mb |
| 20260507105532 | 12 | 55 | 3.2 | 6.4 | 0.00 | 0.00 | 0.00 | 90 | 1015.6 |
| 20260507105038 | 12 | 55 | 1.6 | 4.8 | 0.00 | 0.00 | 0.00 | 90 | 1015.6 |
| 20260507104522 | 13 | 55 | 3.2 | 4.8 | 0.00 | 0.00 | 0.00 | 90 | 1015.6 |
| 20260507104027 | 13 | 55 | 3.2 | 4.8 | 0.00 | 0.00 | 0.00 | 90 | 1015.7 |
| 20260507103523 | 13 | 55 | 3.2 | 4.8 | 0.00 | 0.00 | 0.00 | 90 | 1015.6 |
| 20260507103026 | 13 | 55 | 1.6 | 4.8 | 0.00 | 0.00 | 0.00 | 90 | 1015.7 |
| 20260507102555 | 13 | 55 | 1.6 | 4.8 | 0.00 | 0.00 | 0.00 | 91 | 1015.7 |
| 20260507102031 | 13 | 55 | 1.6 | 4.8 | 0.00 | 0.00 | 0.00 | 90 | 1015.8 |
| 20260507101539 | 13 | 55 | 3.2 | 4.8 | 0.00 | 0.00 | 0.00 | 90 | 1015.8 |
| 20260507101038 | 13 | 55 | 3.2 | 4.8 | 0.00 | 0.00 | 0.00 | 90 | 1015.8 |
| 20260507100539 | 13 | 55 | 3.2 | 4.8 | 0.00 | 0.00 | 0.00 | 90 | 1015.8 |
| 20260507100026 | 13 | 55 | 1.6 | 4.8 | 0.00 | 0.00 | 0.00 | 90 | 1015.8 |
| 20260507095531 | 13 | 55 | 3.2 | 4.8 | 0.00 | 0.00 | 0.00 | 90 | 1015.9 |
| 20260507095037 | 13 | 55 | 1.6 | 4.8 | 0.00 | 0.00 | 0.00 | 90 | 1015.9 |
| 20260507094518 | 13 | 55 | 3.2 | 6.4 | 0.00 | 0.00 | 0.00 | 90 | 1016.0 |
| 20260507094023 | 13 | 55 | 3.2 | 6.4 | 0.00 | 0.00 | 0.00 | 90 | 1015.9 |
| 20260507093527 | 13 | 55 | 1.6 | 6.4 | 0.00 | 0.00 | 0.00 | 90 | 1016.0 |
| 20260507093029 | 13 | 55 | 3.2 | 6.4 | 0.00 | 0.00 | 0.00 | 90 | 1016.0 |
| 20260507092539 | 13 | 44 | 3.2 | 6.4 | 0.00 | 0.00 | 0.00 | 90 | 1016.1 |
| 20260507092020 | 13 | 43 | 3.2 | 4.8 | 0.00 | 0.00 | 0.00 | 90 | 1016.1 |
| 20260507091520 | 13 | 44 | 1.6 | 4.8 | 0.00 | 0.00 | 0.00 | 90 | 1016.0 |
| 20260507091024 | 13 | 44 | 1.6 | 4.8 | 0.00 | 0.00 | 0.00 | 90 | 1016.1 |
| 20260507090532 | 13 | 44 | 1.6 | 4.8 | 0.00 | 0.00 | 0.00 | 89 | 1016.1 |
| 20260507090039 | 13 | 44 | 3.2 | 4.8 | 0.00 | 0.00 | 0.00 | 89 | 1016.2 |
| 20260507085558 | 13 | 44 | 3.2 | 6.4 | 0.00 | 0.00 | 0.00 | 89 | 1016.2 |
| 20260507085019 | 14 | 44 | 3.2 | 6.4 | 0.00 | 0.00 | 0.00 | 89 | 1016.3 |
| 20260507084523 | 14 | 42 | 3.2 | 4.8 | 0.00 | 0.00 | 0.00 | 89 | 1016.3 |
| 20260507084047 | 14 | 22 | 3.2 | 4.8 | 0.00 | 0.00 | 0.00 | 89 | 1016.3 |
| 20260507083532 | 14 | 22 | 1.6 | 4.8 | 0.00 | 0.00 | 0.00 | 89 | 1016.3 |
| 20260507083034 | 14 | 22 | 1.6 | 6.4 | 0.00 | 0.00 | 0.00 | 89 | 1016.4 |
| 20260507082535 | 14 | 22 | 3.2 | 6.4 | 0.00 | 0.00 | 0.00 | 89 | 1016.5 |
| 20260507082042 | 14 | 14 | 0.0 | 4.8 | 0.00 | 0.00 | 0.00 | 89 | 1016.5 |
| 20260507081519 | 14 | 14 | 1.6 | 4.8 | 0.00 | 0.00 | 0.00 | 89 | 1016.4 |
| 20260507081044 | 14 | 14 | 1.6 | 4.8 | 0.00 | 0.00 | 0.00 | 89 | 1016.6 |
| 20260507080528 | 14 | 14 | 1.6 | 3.2 | 0.00 | 0.00 | 0.00 | 89 | 1016.5 |
| 20260507080033 | 14 | 14 | 0.0 | 3.2 | 0.00 | 0.00 | 0.00 | 89 | 1016.6 |
| 20260507075519 | 14 | 14 | 1.6 | 3.2 | 0.00 | 0.00 | 0.00 | 89 | 1016.6 |
| 20260507075022 | 14 | 14 | 1.6 | 3.2 | 0.00 | 0.00 | 0.00 | 89 | 1016.6 |
| 20260507074525 | 14 | 14 | 0.0 | 3.2 | 0.00 | 0.00 | 0.00 | 88 | 1016.6 |
| 20260507074027 | 14 | 14 | 1.6 | 3.2 | 0.00 | 0.00 | 0.00 | 88 | 1016.7 |
| 20260507073527 | 14 | 14 | 1.6 | 4.8 | 0.00 | 0.00 | 0.00 | 88 | 1016.7 |
| 20260507073024 | 15 | 14 | 3.2 | 4.8 | 0.00 | 0.00 | 0.00 | 88 | 1016.7 |
| 20260507072526 | 15 | 14 | 3.2 | 4.8 | 0.00 | 0.00 | 0.00 | 88 | 1016.6 |
| 20260507072037 | 15 | 355 | 1.6 | 3.2 | 0.00 | 0.00 | 0.00 | 87 | 1016.7 |
| 20260507071529 | 15 | 355 | 1.6 | 3.2 | 0.00 | 0.00 | 0.00 | 87 | 1016.7 |
| 20260507071031 | 15 | 355 | 1.6 | 4.8 | 0.00 | 0.00 | 0.00 | 87 | 1016.8 |
| 20260507070533 | 15 | 355 | 1.6 | 4.8 | 0.00 | 0.00 | 0.00 | 86 | 1016.8 |
| 20260507070022 | 15 | 355 | 1.6 | 4.8 | 0.00 | 0.00 | 0.00 | 86 | 1016.8 |
| 20260507065545 | 15 | 311 | 1.6 | 3.2 | 0.00 | 0.00 | 0.00 | 86 | 1016.8 |
| 20260507065051 | 15 | 311 | 1.6 | 3.2 | 0.00 | 0.00 | 0.00 | 85 | 1016.7 |
| 20260507064530 | 15 | 311 | 1.6 | 3.2 | 0.00 | 0.00 | 0.00 | 85 | 1016.7 |
| 20260507064033 | 15 | 311 | 0.0 | 0.0 | 0.00 | 0.00 | 0.00 | 84 | 1016.7 |
| 20260507063550 | 15 | 311 | 0.0 | 1.6 | 0.00 | 0.00 | 0.00 | 83 | 1016.6 |
| 20260507063053 | 15 | 311 | 0.0 | 1.6 | 0.00 | 0.00 | 0.00 | 83 | 1016.7 |
| 20260507062533 | 16 | 311 | 0.0 | 1.6 | 0.00 | 0.00 | 0.00 | 83 | 1016.7 |
| 20260507062038 | 16 | 311 | 0.0 | 0.0 | 0.00 | 0.00 | 0.00 | 83 | 1016.7 |
| 20260507061523 | 16 | 311 | 0.0 | 0.0 | 0.00 | 0.00 | 0.00 | 83 | 1016.7 |
| 20260507061048 | 16 | 311 | 0.0 | 1.6 | 0.00 | 0.00 | 0.00 | 83 | 1016.8 |
| 20260507060526 | 16 | 311 | 0.0 | 1.6 | 0.00 | 0.00 | 0.00 | 83 | 1016.8 |
| 20260507060030 | 16 | 311 | 0.0 | 3.2 | 0.00 | 0.00 | 0.00 | 82 | 1016.8 |
| 20260507055517 | 16 | 311 | 0.0 | 3.2 | 0.00 | 0.00 | 0.00 | 83 | 1016.8 |
| 20260507055021 | 16 | 311 | 0.0 | 8.0 | 0.00 | 0.00 | 0.00 | 83 | 1016.8 |
| 20260507054545 | 16 | 311 | 1.6 | 8.0 | 0.00 | 0.00 | 0.00 | 83 | 1016.8 |
| 20260507054049 | 16 | 315 | 1.6 | 8.0 | 0.00 | 0.00 | 0.00 | 83 | 1016.8 |
| 20260507053535 | 16 | 315 | 1.6 | 8.0 | 0.00 | 0.00 | 0.00 | 84 | 1016.9 |
| 20260507053034 | 16 | 319 | 1.6 | 8.0 | 0.00 | 0.00 | 0.00 | 84 | 1016.8 |
| 20260507052540 | 16 | 315 | 3.2 | 8.0 | 0.00 | 0.00 | 0.00 | 84 | 1016.8 |
| 20260507052019 | 16 | 321 | 1.6 | 9.7 | 0.00 | 0.00 | 0.00 | 84 | 1016.8 |
| 20260507051559 | 16 | 310 | 4.8 | 11.3 | 0.00 | 0.00 | 0.00 | 84 | 1016.7 |
| 20260507051046 | 16 | 323 | 3.2 | 11.3 | 0.00 | 0.00 | 0.00 | 84 | 1016.8 |
| 20260507050545 | 16 | 310 | 3.2 | 11.3 | 0.00 | 0.00 | 0.00 | 84 | 1016.7 |
| 20260507050027 | 16 | 277 | 1.6 | 6.4 | 0.00 | 0.00 | 0.00 | 84 | 1016.7 |
| 20260507045531 | 16 | 289 | 3.2 | 6.4 | 0.00 | 0.00 | 0.00 | 84 | 1016.7 |
| 20260507045032 | 16 | 290 | 1.6 | 6.4 | 0.00 | 0.00 | 0.00 | 84 | 1016.7 |
| 20260507044534 | 16 | 290 | 1.6 | 6.4 | 0.00 | 0.00 | 0.00 | 84 | 1016.8 |
| 20260507044038 | 16 | 290 | 1.6 | 8.0 | 0.00 | 0.00 | 0.00 | 84 | 1016.8 |
| 20260507043540 | 16 | 286 | 4.8 | 11.3 | 0.00 | 0.00 | 0.00 | 83 | 1016.7 |
| 20260507043038 | 16 | 311 | 4.8 | 11.3 | 0.00 | 0.00 | 0.00 | 84 | 1016.7 |
| 20260507042518 | 16 | 318 | 3.2 | 11.3 | 0.00 | 0.00 | 0.00 | 83 | 1016.7 |
| 20260507042046 | 17 | 317 | 3.2 | 9.7 | 0.00 | 0.00 | 0.00 | 83 | 1016.7 |
| 20260507041526 | 17 | 321 | 3.2 | 9.7 | 0.00 | 0.00 | 0.00 | 83 | 1016.7 |
| 20260507041040 | 17 | 304 | 3.2 | 9.7 | 0.00 | 0.00 | 0.00 | 83 | 1016.7 |
| 20260507040545 | 17 | 350 | 3.2 | 9.7 | 0.00 | 0.00 | 0.00 | 83 | 1016.7 |
| 20260507040022 | 17 | 321 | 4.8 | 9.7 | 0.00 | 0.00 | 0.00 | 83 | 1016.6 |
| 20260507035525 | 17 | 294 | 1.6 | 12.9 | 0.00 | 0.00 | 0.00 | 82 | 1016.6 |
| 20260507035026 | 17 | 309 | 6.4 | 12.9 | 0.00 | 0.00 | 0.00 | 82 | 1016.6 |
| 20260507034528 | 17 | 318 | 3.2 | 14.5 | 0.00 | 0.00 | 0.00 | 81 | 1016.5 |
| 20260507034030 | 17 | 284 | 3.2 | 14.5 | 0.00 | 0.00 | 0.00 | 82 | 1016.5 |
| 20260507033533 | 17 | 311 | 4.8 | 11.3 | 0.00 | 0.00 | 0.00 | 82 | 1016.4 |
| 20260507033039 | 17 | 331 | 4.8 | 9.7 | 0.00 | 0.00 | 0.00 | 81 | 1016.4 |
| 20260507032525 | 17 | 325 | 3.2 | 8.0 | 0.00 | 0.00 | 0.00 | 81 | 1016.4 |
| 20260507032051 | 17 | 319 | 3.2 | 11.3 | 0.00 | 0.00 | 0.00 | 81 | 1016.4 |
| 20260507031529 | 17 | 342 | 4.8 | 12.9 | 0.00 | 0.00 | 0.00 | 82 | 1016.4 |
| 20260507031039 | 17 | 311 | 4.8 | 12.9 | 0.00 | 0.00 | 0.00 | 82 | 1016.3 |
| 20260507030520 | 17 | 320 | 3.2 | 12.9 | 0.00 | 0.00 | 0.00 | 82 | 1016.3 |
| 20260507030019 | 17 | 311 | 6.4 | 14.5 | 0.00 | 0.00 | 0.00 | 82 | 1016.2 |
| 20260507025520 | 17 | 318 | 4.8 | 14.5 | 0.00 | 0.00 | 0.00 | 82 | 1016.1 |
| 20260507025025 | 17 | 321 | 3.2 | 11.3 | 0.00 | 0.00 | 0.00 | 82 | 1016.1 |
| 20260507024552 | 17 | 322 | 4.8 | 11.3 | 0.00 | 0.00 | 0.00 | 82 | 1016.1 |
| 20260507024055 | 17 | 355 | 3.2 | 11.3 | 0.00 | 0.00 | 0.00 | 82 | 1016.0 |
| 20260507023538 | 17 | 303 | 4.8 | 11.3 | 0.00 | 0.00 | 0.00 | 82 | 1016.0 |
| 20260507023041 | 17 | 327 | 3.2 | 11.3 | 0.00 | 0.00 | 0.00 | 81 | 1016.0 |
| 20260507022522 | 17 | 288 | 6.4 | 11.3 | 0.00 | 0.00 | 0.00 | 81 | 1015.9 |
| 20260507022027 | 17 | 315 | 3.2 | 14.5 | 0.00 | 0.00 | 0.00 | 81 | 1015.9 |
| 20260507021529 | 17 | 293 | 6.4 | 14.5 | 0.00 | 0.00 | 0.00 | 81 | 1015.9 |
| 20260507021034 | 18 | 313 | 8.0 | 14.5 | 0.00 | 0.00 | 0.00 | 80 | 1015.8 |
| 20260507020517 | 18 | 306 | 4.8 | 14.5 | 0.00 | 0.00 | 0.00 | 80 | 1015.8 |
| 20260507020024 | 18 | 360 | 6.4 | 14.5 | 0.00 | 0.00 | 0.00 | 79 | 1015.8 |
| 20260507015528 | 18 | 320 | 6.4 | 11.3 | 0.00 | 0.00 | 0.00 | 79 | 1015.7 |
| 20260507015029 | 18 | 285 | 4.8 | 11.3 | 0.00 | 0.00 | 0.00 | 79 | 1015.7 |
| 20260507014518 | 18 | 296 | 4.8 | 12.9 | 0.00 | 0.00 | 0.00 | 79 | 1015.7 |
| 20260507014026 | 18 | 285 | 6.4 | 12.9 | 0.00 | 0.00 | 0.00 | 79 | 1015.6 |
| 20260507013536 | 18 | 325 | 8.0 | 12.9 | 0.00 | 0.00 | 0.00 | 77 | 1015.7 |
| 20260507013019 | 19 | 307 | 6.4 | 14.5 | 0.00 | 0.00 | 0.00 | 76 | 1015.6 |
| 20260507012524 | 19 | 313 | 6.4 | 16.1 | 0.00 | 0.00 | 0.00 | 76 | 1015.6 |
| 20260507012033 | 20 | 315 | 9.7 | 16.1 | 0.00 | 0.00 | 0.00 | 74 | 1015.6 |
| 20260507011534 | 20 | 318 | 8.0 | 17.7 | 0.00 | 0.00 | 0.00 | 74 | 1015.6 |
| 20260507010542 | 20 | 274 | 8.0 | 17.7 | 0.00 | 0.00 | 0.00 | 72 | 1015.5 |
| 20260507010025 | 20 | 307 | 8.0 | 17.7 | 0.00 | 0.00 | 0.00 | 71 | 1015.5 |
| 20260507005550 | 20 | 319 | 8.0 | 16.1 | 0.00 | 0.00 | 0.00 | 69 | 1015.5 |
| 20260507005030 | 20 | 300 | 6.4 | 16.1 | 0.00 | 0.00 | 0.00 | 69 | 1015.5 |
| 20260507004536 | 20 | 300 | 6.4 | 17.7 | 0.00 | 0.00 | 0.00 | 69 | 1015.5 |
| 20260507004026 | 20 | 305 | 8.0 | 19.3 | 0.00 | 0.00 | 0.00 | 69 | 1015.5 |
| 20260507003528 | 20 | 327 | 9.7 | 19.3 | 0.00 | 0.00 | 0.00 | 69 | 1015.5 |
| 20260507003025 | 20 | 345 | 9.7 | 19.3 | 0.00 | 0.00 | 0.00 | 68 | 1015.5 |
| 20260507002525 | 21 | 338 | 9.7 | 17.7 | 0.00 | 0.00 | 0.00 | 68 | 1015.4 |
| 20260507002028 | 21 | 303 | 8.0 | 17.7 | 0.00 | 0.00 | 0.00 | 69 | 1015.4 |
| 20260507001528 | 21 | 289 | 9.7 | 17.7 | 0.00 | 0.00 | 0.00 | 69 | 1015.4 |
| 20260507001019 | 21 | 318 | 6.4 | 19.3 | 0.00 | 0.00 | 0.00 | 71 | 1015.4 |
| 20260507000521 | 21 | 296 | 9.7 | 19.3 | 0.00 | 0.00 | 0.00 | 71 | 1015.3 |
| 20260507000028 | 21 | 317 | 8.0 | 17.7 | 0.00 | 0.00 | 0.00 | 71 | 1015.3 |
| 20260506235531 | 21 | 330 | 8.0 | 17.7 | 0.00 | 0.00 | 0.00 | 72 | 1015.3 |
| 20260506235038 | 21 | 291 | 9.7 | 19.3 | 0.00 | 0.00 | 0.00 | 72 | 1015.2 |
| 20260506234522 | 21 | 282 | 9.7 | 19.3 | 0.00 | 0.00 | 0.00 | 72 | 1015.3 |
| 20260506234050 | 21 | 261 | 9.7 | 17.7 | 0.00 | 0.00 | 0.00 | 70 | 1015.3 |
| 20260506233529 | 21 | 267 | 6.4 | 17.7 | 0.00 | 0.00 | 0.00 | 72 | 1015.3 |
| 20260506233034 | 21 | 272 | 8.0 | 17.7 | 0.00 | 0.00 | 0.00 | 71 | 1015.3 |
| 20260506232523 | 21 | 338 | 8.0 | 17.7 | 0.00 | 0.00 | 0.00 | 71 | 1015.3 |
| 20260506232025 | 21 | 317 | 6.4 | 17.7 | 0.00 | 0.00 | 0.00 | 72 | 1015.4 |
| 20260506231534 | 21 | 318 | 9.7 | 19.3 | 0.00 | 0.00 | 0.00 | 71 | 1015.4 |
| 20260506231018 | 21 | 297 | 9.7 | 19.3 | 0.00 | 0.00 | 0.00 | 71 | 1015.4 |
| 20260506230524 | 20 | 290 | 8.0 | 17.7 | 0.00 | 0.00 | 0.00 | 72 | 1015.5 |
| 20260506230030 | 21 | 348 | 11.3 | 17.7 | 0.00 | 0.00 | 0.00 | 72 | 1015.5 |
| 20260506225534 | 21 | 294 | 9.7 | 17.7 | 0.00 | 0.00 | 0.00 | 70 | 1015.5 |
| 20260506225036 | 21 | 302 | 9.7 | 20.9 | 0.00 | 0.00 | 0.00 | 71 | 1015.5 |
| 20260506224518 | 21 | 319 | 8.0 | 20.9 | 0.00 | 0.00 | 0.00 | 72 | 1015.6 |
| 20260506224022 | 21 | 341 | 9.7 | 20.9 | 0.00 | 0.00 | 0.00 | 72 | 1015.6 |
| 20260506223524 | 21 | 304 | 11.3 | 22.5 | 0.00 | 0.00 | 0.00 | 71 | 1015.7 |
| 20260506223025 | 21 | 346 | 9.7 | 22.5 | 0.00 | 0.00 | 0.00 | 70 | 1015.8 |
| 20260506222527 | 21 | 275 | 11.3 | 20.9 | 0.00 | 0.00 | 0.00 | 70 | 1015.9 |
| 20260506222029 | 21 | 355 | 9.7 | 19.3 | 0.00 | 0.00 | 0.00 | 70 | 1015.9 |
| 20260506221536 | 21 | 309 | 11.3 | 19.3 | 0.00 | 0.00 | 0.00 | 69 | 1015.9 |
| 20260506221038 | 21 | 257 | 8.0 | 20.9 | 0.00 | 0.00 | 0.00 | 70 | 1015.9 |
| 20260506220521 | 21 | 311 | 11.3 | 20.9 | 0.00 | 0.00 | 0.00 | 68 | 1016.1 |
| 20260506220026 | 21 | 314 | 9.7 | 16.1 | 0.00 | 0.00 | 0.00 | 68 | 1016.2 |
| 20260506215531 | 21 | 308 | 9.7 | 19.3 | 0.00 | 0.00 | 0.00 | 69 | 1016.1 |
| 20260506215042 | 21 | 280 | 11.3 | 19.3 | 0.00 | 0.00 | 0.00 | 69 | 1016.1 |
| 20260506214523 | 21 | 289 | 9.7 | 25.7 | 0.00 | 0.00 | 0.00 | 68 | 1016.2 |
| 20260506214024 | 21 | 325 | 8.0 | 25.7 | 0.00 | 0.00 | 0.00 | 69 | 1016.2 |
| 20260506213527 | 21 | 315 | 12.9 | 25.7 | 0.00 | 0.00 | 0.00 | 69 | 1016.3 |
| 20260506213025 | 21 | 286 | 11.3 | 24.1 | 0.00 | 0.00 | 0.00 | 68 | 1016.4 |
| 20260506212529 | 21 | 267 | 9.7 | 22.5 | 0.00 | 0.00 | 0.00 | 68 | 1016.4 |
| 20260506212030 | 21 | 293 | 9.7 | 22.5 | 0.00 | 0.00 | 0.00 | 69 | 1016.5 |
| 20260506211520 | 21 | 325 | 8.0 | 17.7 | 0.00 | 0.00 | 0.00 | 68 | 1016.5 |
| 20260506211046 | 21 | 300 | 11.3 | 20.9 | 0.00 | 0.00 | 0.00 | 68 | 1016.6 |
| 20260506210527 | 21 | 275 | 9.7 | 20.9 | 0.00 | 0.00 | 0.00 | 68 | 1016.6 |
| 20260506210036 | 21 | 293 | 8.0 | 22.5 | 0.00 | 0.00 | 0.00 | 67 | 1016.6 |
| 20260506205546 | 21 | 313 | 9.7 | 22.5 | 0.00 | 0.00 | 0.00 | 67 | 1016.6 |
| 20260506205025 | 21 | 279 | 9.7 | 17.7 | 0.00 | 0.00 | 0.00 | 67 | 1016.7 |
| 20260506204529 | 21 | 343 | 11.3 | 17.7 | 0.00 | 0.00 | 0.00 | 66 | 1016.7 |
| 20260506204037 | 21 | 306 | 9.7 | 17.7 | 0.00 | 0.00 | 0.00 | 65 | 1016.7 |
| 20260506203543 | 21 | 282 | 6.4 | 19.3 | 0.00 | 0.00 | 0.00 | 67 | 1016.8 |
| 20260506203049 | 21 | 319 | 12.9 | 19.3 | 0.00 | 0.00 | 0.00 | 66 | 1016.7 |
| 20260506202531 | 21 | 322 | 9.7 | 17.7 | 0.00 | 0.00 | 0.00 | 68 | 1016.8 |
| 20260506202036 | 21 | 268 | 8.0 | 17.7 | 0.00 | 0.00 | 0.00 | 69 | 1016.8 |
| 20260506201520 | 21 | 311 | 11.3 | 17.7 | 0.00 | 0.00 | 0.00 | 68 | 1016.9 |
| 20260506201022 | 21 | 330 | 9.7 | 17.7 | 0.00 | 0.00 | 0.00 | 68 | 1017.0 |
| 20260506200545 | 21 | 340 | 9.7 | 16.1 | 0.00 | 0.00 | 0.00 | 68 | 1017.0 |
| 20260506200029 | 21 | 252 | 8.0 | 16.1 | 0.00 | 0.00 | 0.00 | 68 | 1017.0 |
| 20260506195558 | 21 | 304 | 11.3 | 16.1 | 0.00 | 0.00 | 0.00 | 67 | 1017.1 |
| 20260506195046 | 21 | 313 | 8.0 | 17.7 | 0.00 | 0.00 | 0.00 | 69 | 1017.2 |
| 20260506194529 | 21 | 298 | 9.7 | 17.7 | 0.00 | 0.00 | 0.00 | 67 | 1017.2 |
| 20260506194029 | 21 | 292 | 9.7 | 17.7 | 0.00 | 0.00 | 0.00 | 66 | 1017.3 |
| 20260506193532 | 21 | 273 | 8.0 | 17.7 | 0.00 | 0.00 | 0.00 | 66 | 1017.3 |
| 20260506193055 | 21 | 259 | 8.0 | 17.7 | 0.00 | 0.00 | 0.00 | 67 | 1017.3 |
| 20260506192521 | 21 | 338 | 8.0 | 17.7 | 0.00 | 0.00 | 0.00 | 66 | 1017.3 |
| 20260506192027 | 21 | 247 | 6.4 | 17.7 | 0.00 | 0.00 | 0.00 | 67 | 1017.4 |
| 20260506191526 | 21 | 312 | 8.0 | 17.7 | 0.00 | 0.00 | 0.00 | 67 | 1017.5 |
| 20260506191028 | 21 | 271 | 9.7 | 16.1 | 0.00 | 0.00 | 0.00 | 66 | 1017.6 |
| 20260506190532 | 21 | 298 | 8.0 | 14.5 | 0.00 | 0.00 | 0.00 | 65 | 1017.6 |
| 20260506190031 | 21 | 288 | 8.0 | 14.5 | 0.00 | 0.00 | 0.00 | 65 | 1017.5 |
| 20260506185558 | 21 | 302 | 8.0 | 14.5 | 0.00 | 0.00 | 0.00 | 66 | 1017.6 |
| 20260506185040 | 21 | 292 | 8.0 | 17.7 | 0.00 | 0.00 | 0.00 | 66 | 1017.6 |
| 20260506184522 | 21 | 233 | 9.7 | 17.7 | 0.00 | 0.00 | 0.00 | 66 | 1017.7 |
| 20260506184047 | 21 | 290 | 8.0 | 16.1 | 0.00 | 0.00 | 0.00 | 67 | 1017.7 |
| 20260506183530 | 21 | 244 | 4.8 | 12.9 | 0.00 | 0.00 | 0.00 | 66 | 1017.8 |
| 20260506183041 | 21 | 254 | 6.4 | 12.9 | 0.00 | 0.00 | 0.00 | 67 | 1017.8 |
| 20260506182534 | 21 | 275 | 6.4 | 12.9 | 0.00 | 0.00 | 0.00 | 66 | 1017.8 |
| 20260506182035 | 20 | 322 | 4.8 | 11.3 | 0.00 | 0.00 | 0.00 | 67 | 1017.8 |
| 20260506181538 | 20 | 275 | 6.4 | 12.9 | 0.00 | 0.00 | 0.00 | 67 | 1017.9 |
| 20260506181026 | 20 | 265 | 4.8 | 14.5 | 0.00 | 0.00 | 0.00 | 67 | 1017.8 |
| 20260506180525 | 20 | 257 | 6.4 | 14.5 | 0.00 | 0.00 | 0.00 | 67 | 1017.9 |
| 20260506180030 | 20 | 252 | 6.4 | 12.9 | 0.00 | 0.00 | 0.00 | 67 | 1017.9 |
| 20260506175533 | 20 | 256 | 6.4 | 12.9 | 0.00 | 0.00 | 0.00 | 66 | 1018.0 |
| 20260506175044 | 20 | 231 | 6.4 | 17.7 | 0.00 | 0.00 | 0.00 | 68 | 1018.0 |
| 20260506174526 | 20 | 318 | 6.4 | 17.7 | 0.00 | 0.00 | 0.00 | 68 | 1018.1 |
| 20260506174024 | 20 | 280 | 6.4 | 12.9 | 0.00 | 0.00 | 0.00 | 67 | 1018.1 |
| 20260506173527 | 20 | 290 | 6.4 | 12.9 | 0.00 | 0.00 | 0.00 | 68 | 1018.0 |
| 20260506173040 | 20 | 234 | 6.4 | 12.9 | 0.00 | 0.00 | 0.00 | 68 | 1018.0 |
| 20260506172545 | 20 | 254 | 6.4 | 12.9 | 0.00 | 0.00 | 0.00 | 68 | 1018.1 |
| 20260506172029 | 20 | 289 | 4.8 | 12.9 | 0.00 | 0.00 | 0.00 | 69 | 1018.2 |
| 20260506171527 | 20 | 320 | 6.4 | 11.3 | 0.00 | 0.00 | 0.00 | 69 | 1018.2 |
| 20260506171034 | 20 | 337 | 3.2 | 12.9 | 0.00 | 0.00 | 0.00 | 69 | 1018.2 |
| 20260506170602 | 20 | 251 | 6.4 | 12.9 | 0.00 | 0.00 | 0.00 | 69 | 1018.2 |
| 20260506170029 | 20 | 303 | 6.4 | 11.3 | 0.00 | 0.00 | 0.00 | 69 | 1018.2 |
| 20260506165535 | 20 | 243 | 4.8 | 11.3 | 0.00 | 0.00 | 0.00 | 69 | 1018.2 |
| 20260506165039 | 20 | 341 | 6.4 | 14.5 | 0.00 | 0.00 | 0.00 | 69 | 1018.2 |
| 20260506164540 | 20 | 333 | 4.8 | 14.5 | 0.00 | 0.00 | 0.00 | 69 | 1018.2 |
| 20260506164044 | 20 | 300 | 4.8 | 9.7 | 0.00 | 0.00 | 0.00 | 68 | 1018.2 |
| 20260506163526 | 20 | 271 | 3.2 | 8.0 | 0.00 | 0.00 | 0.00 | 69 | 1018.2 |
| 20260506163025 | 20 | 302 | 3.2 | 6.4 | 0.00 | 0.00 | 0.00 | 68 | 1018.2 |
| 20260506162531 | 19 | 309 | 3.2 | 11.3 | 0.00 | 0.00 | 0.00 | 69 | 1018.2 |
| 20260506162037 | 19 | 279 | 3.2 | 11.3 | 0.00 | 0.00 | 0.00 | 68 | 1018.2 |
| 20260506161522 | 19 | 265 | 1.6 | 8.0 | 0.00 | 0.00 | 0.00 | 69 | 1018.3 |
| 20260506161027 | 19 | 320 | 1.6 | 6.4 | 0.00 | 0.00 | 0.00 | 69 | 1018.1 |
| 20260506160535 | 19 | 84 | 1.6 | 8.0 | 0.00 | 0.00 | 0.00 | 70 | 1018.2 |
| 20260506160018 | 18 | 84 | 0.0 | 4.8 | 0.00 | 0.00 | 0.00 | 70 | 1018.1 |
| 20260506155521 | 18 | 84 | 1.6 | 9.7 | 0.00 | 0.00 | 0.00 | 71 | 1018.2 |
| 20260506155024 | 18 | 84 | 1.6 | 9.7 | 0.00 | 0.00 | 0.00 | 71 | 1018.2 |
| 20260506154527 | 18 | 45 | 4.8 | 8.0 | 0.00 | 0.00 | 0.00 | 71 | 1018.1 |
| 20260506154036 | 17 | 90 | 1.6 | 9.7 | 0.00 | 0.00 | 0.00 | 72 | 1018.2 |
| 20260506153558 | 17 | 101 | 4.8 | 9.7 | 0.00 | 0.00 | 0.00 | 73 | 1018.1 |
| 20260506153020 | 17 | 75 | 3.2 | 9.7 | 0.00 | 0.00 | 0.00 | 74 | 1018.1 |
| 20260506152522 | 16 | 39 | 4.8 | 9.7 | 0.00 | 0.00 | 0.00 | 75 | 1018.1 |
| 20260506152047 | 16 | 46 | 6.4 | 8.0 | 0.00 | 0.00 | 0.00 | 75 | 1018.1 |
| 20260506151531 | 16 | 46 | 4.8 | 8.0 | 0.00 | 0.00 | 0.00 | 76 | 1018.1 |
| 20260506151057 | 16 | 50 | 4.8 | 8.0 | 0.00 | 0.00 | 0.00 | 77 | 1018.1 |
| 20260506150539 | 15 | 67 | 4.8 | 8.0 | 0.00 | 0.00 | 0.00 | 78 | 1018.2 |
| 20260506150043 | 15 | 69 | 3.2 | 8.0 | 0.00 | 0.00 | 0.00 | 79 | 1018.2 |
| 20260506145529 | 15 | 81 | 6.4 | 12.9 | 0.00 | 0.00 | 0.00 | 79 | 1018.2 |
| 20260506145037 | 14 | 61 | 4.8 | 12.9 | 0.00 | 0.00 | 0.00 | 80 | 1018.2 |
| 20260506144540 | 14 | 82 | 6.4 | 8.0 | 0.00 | 0.00 | 0.00 | 81 | 1018.2 |
| 20260506144026 | 14 | 99 | 4.8 | 11.3 | 0.00 | 0.00 | 0.00 | 82 | 1018.2 |
| 20260506143526 | 13 | 77 | 6.4 | 12.9 | 0.00 | 0.00 | 0.00 | 82 | 1018.1 |
| 20260506143040 | 13 | 105 | 6.4 | 12.9 | 0.00 | 0.00 | 0.00 | 83 | 1018.1 |
| 20260506142521 | 13 | 76 | 6.4 | 11.3 | 0.00 | 0.00 | 0.00 | 84 | 1018.1 |
| 20260506142048 | 13 | 69 | 6.4 | 11.3 | 0.00 | 0.00 | 0.00 | 84 | 1018.1 |
| 20260506141527 | 12 | 90 | 4.8 | 11.3 | 0.00 | 0.00 | 0.00 | 85 | 1018.0 |
| 20260506141029 | 12 | 67 | 3.2 | 12.9 | 0.00 | 0.00 | 0.00 | 86 | 1018.0 |
| 20260506140538 | 12 | 94 | 6.4 | 12.9 | 0.00 | 0.03 | 0.00 | 87 | 1018.0 |
| 20260506140023 | 12 | 111 | 6.4 | 12.9 | 0.00 | 0.03 | 0.00 | 86 | 1017.9 |
| 20260506135528 | 12 | 55 | 6.4 | 14.5 | 0.00 | 0.03 | 0.00 | 87 | 1017.9 |
| 20260506135042 | 11 | 43 | 8.0 | 14.5 | 0.00 | 0.03 | 0.00 | 87 | 1017.9 |
| 20260506134525 | 11 | 94 | 8.0 | 12.9 | 0.00 | 0.03 | 0.00 | 88 | 1017.9 |
| 20260506134054 | 11 | 94 | 6.4 | 11.3 | 0.00 | 0.03 | 0.00 | 88 | 1017.8 |
| 20260506133555 | 11 | 73 | 6.4 | 14.5 | 0.00 | 0.03 | 0.00 | 88 | 1017.7 |
| 20260506133033 | 11 | 84 | 8.0 | 14.5 | 0.00 | 0.03 | 0.00 | 89 | 1017.7 |
| 20260506132540 | 11 | 103 | 9.7 | 14.5 | 0.00 | 0.03 | 0.00 | 89 | 1017.6 |
| 20260506132021 | 11 | 88 | 9.7 | 14.5 | 0.00 | 0.03 | 0.00 | 89 | 1017.6 |
| 20260506131525 | 11 | 86 | 6.4 | 12.9 | 0.00 | 0.03 | 0.00 | 89 | 1017.6 |
| 20260506131054 | 11 | 101 | 6.4 | 11.3 | 0.00 | 0.03 | 0.00 | 89 | 1017.5 |
| 20260506130539 | 11 | 79 | 6.4 | 14.5 | 0.00 | 0.03 | 0.00 | 89 | 1017.5 |
| 20260506130020 | 11 | 79 | 6.4 | 14.5 | 0.00 | 0.03 | 0.00 | 89 | 1017.4 |
| 20260506125547 | 11 | 71 | 9.7 | 14.5 | 0.00 | 0.03 | 0.00 | 89 | 1017.4 |
| 20260506125029 | 11 | 92 | 8.0 | 12.9 | 0.00 | 0.03 | 0.00 | 89 | 1017.3 |
| 20260506124535 | 11 | 84 | 6.4 | 12.9 | 0.00 | 0.03 | 0.00 | 89 | 1017.3 |
| 20260506124043 | 11 | 94 | 6.4 | 12.9 | 0.00 | 0.03 | 0.00 | 89 | 1017.3 |
| 20260506123526 | 11 | 86 | 9.7 | 12.9 | 0.00 | 0.03 | 0.00 | 89 | 1017.2 |
| 20260506123027 | 11 | 82 | 8.0 | 12.9 | 0.00 | 0.03 | 0.00 | 89 | 1017.1 |
| 20260506122529 | 11 | 77 | 8.0 | 12.9 | 0.00 | 0.03 | 0.00 | 89 | 1017.1 |
| 20260506122042 | 11 | 95 | 6.4 | 12.9 | 0.00 | 0.03 | 0.00 | 89 | 1017.1 |
| 20260506121524 | 11 | 78 | 4.8 | 11.3 | 0.00 | 0.03 | 0.00 | 89 | 1017.1 |
| 20260506121033 | 11 | 84 | 8.0 | 11.3 | 0.00 | 0.03 | 0.00 | 89 | 1017.1 |
| 20260506120557 | 11 | 84 | 4.8 | 11.3 | 0.00 | 0.03 | 0.00 | 89 | 1017.1 |
| 20260506120038 | 11 | 76 | 6.4 | 12.9 | 0.00 | 0.03 | 0.00 | 89 | 1017.1 |
| 20260506115522 | 11 | 84 | 8.0 | 12.9 | 0.00 | 0.03 | 0.00 | 89 | 1017.1 |
| 20260506115027 | 11 | 80 | 6.4 | 12.9 | 0.00 | 0.03 | 0.00 | 89 | 1017.1 |
| 20260506114540 | 11 | 91 | 8.0 | 12.9 | 0.00 | 0.03 | 0.00 | 89 | 1017.1 |
| 20260506114022 | 11 | 89 | 8.0 | 12.9 | 0.00 | 0.03 | 0.00 | 89 | 1017.1 |
| 20260506113527 | 11 | 86 | 6.4 | 12.9 | 0.00 | 0.03 | 0.00 | 89 | 1017.1 |
| 20260506113034 | 11 | 88 | 6.4 | 11.3 | 0.00 | 0.03 | 0.00 | 89 | 1017.1 |
| 20260506112559 | 11 | 79 | 3.2 | 11.3 | 0.00 | 0.03 | 0.00 | 89 | 1017.1 |
| 20260506112023 | 11 | 80 | 6.4 | 12.9 | 0.00 | 0.03 | 0.00 | 89 | 1017.1 |
| 20260506111527 | 11 | 79 | 6.4 | 12.9 | 0.00 | 0.03 | 0.00 | 88 | 1017.0 |
| 20260506111029 | 11 | 87 | 8.0 | 12.9 | 0.00 | 0.03 | 0.00 | 88 | 1017.0 |
| 20260506110532 | 11 | 88 | 8.0 | 12.9 | 0.00 | 0.03 | 0.00 | 88 | 1017.0 |
| 20260506110059 | 11 | 74 | 6.4 | 11.3 | 0.00 | 0.03 | 0.00 | 88 | 1017.0 |